[[{"header":{"parameterUnit":"m.s-1","parameterCategory":2,"la1":30.2991,"la2":30.254,"lo1":-89.0895,"lo2":-89.0444,"dy":0.0017,"dx":0.0017,"nx":28,"ny":28,"refTime":"2025-03-23T03:00:00:Z","depth":"0","parameterNumber":2,"parameterNumberName":"U-component_of_CURRENTS"},"data":[0,0,0,0,0,0,0,0,0,0,0,0,0,0,0,0,0,0,0,0,0,0,0,0,0,0,0,0,0,0,0,0,0,0,0,0,0,0,0,0,0,0,0,0,0,0,0,0,0,0,0,0,0,0,0,0,0,0,0.2911,0.2911,0,0.2977,0.2977,0.2978,0.2983,0.2982,0.2981,0.2981,0.2987,0.2988,0.2989,0,0,0,0,0,0,0,0,0,0,0,0,0,0.2774,0.2776,0.2911,0.2912,0.2913,0.2977,0.2977,0.2978,0.2983,0.2982,0.2981,0.2981,0.2987,0.2988,0.2989,0,0,0,0,0,0,0,0,0,0,0,0,0,0.2834,0.2777,0.291,0.2924,0.2926,0.2977,0.2978,0.2978,0.2983,0.2982,0.2981,0.298,0.2987,0.2988,0.2989,0.3013,0,0,0.2992,0.2993,0,0,0,0,0,0,0,0,0.2831,0.2839,0.2921,0.2923,0.2925,0.2972,0.2932,0.2988,0.2983,0.2959,0.2981,0.298,0.2978,0.298,0.2993,0.3014,0.3014,0.2992,0.2993,0.2993,0.2994,0,0,0,0,0,0,0,0.2827,0.2836,0.2935,0.2922,0.2925,0.2922,0.2929,0.2942,0.2971,0.2961,0.2962,0.2973,0.2979,0.2992,0.2993,0.3014,0.2992,0.2993,0.2994,0.2994,0.3087,0.3089,0,0,0,0,0,0,0.2824,0.2833,0.2933,0.2937,0.2877,0.2925,0.2933,0.2957,0.2972,0.2974,0.2973,0.2973,0.2991,0.2992,0.2993,0.3052,0.2993,0.2994,0.2995,0.3086,0.3088,0.309,0,0,0,0,0,0,0.2821,0.2833,0.293,0.2886,0.2899,0.2929,0.2954,0.2958,0.2975,0.2982,0.2983,0.2986,0.299,0.2992,0.3022,0.305,0.2995,0.2996,0.3083,0.3086,0.3089,0.3149,0,0,0,0,0,0,0.2817,0.2832,0.2848,0.2887,0.2901,0.2972,0.2956,0.296,0.2984,0.2983,0.2993,0.2993,0.2989,0.3021,0.3023,0.3051,0.2997,0.3081,0.3085,0.3088,0.3145,0.3154,0.3161,0,0,0,0,0,0.2812,0.2842,0.2849,0.2861,0.2924,0.2974,0.2981,0.2997,0.2985,0.3005,0.3014,0.2993,0.3044,0.3024,0.3026,0.3054,0.3079,0.3084,0.3088,0.3141,0.3152,0.3161,0,0,0,0,0,0,0.2784,0.2846,0.2855,0.29,0.2938,0.2975,0.2997,0.3003,0.3026,0.3023,0.3018,0.302,0.306,0.3051,0.3028,0.3093,0.3058,0.3063,0.3098,0.3108,0.3116,0.3122,0.2998,0,0,0,0,0,0.2789,0.2832,0.288,0.2915,0.2937,0.2967,0.2987,0.3,0.3026,0.3035,0.3043,0.3055,0.308,0.3088,0.3108,0.314,0.3179,0.316,0.3168,0.3175,0.3183,0.3295,0.3315,0.3103,0.3103,0.3103,0,0,0.2784,0.2827,0.2847,0.2913,0.2942,0.2979,0.2977,0.3018,0.3042,0.3032,0.3068,0.3087,0.3098,0.3141,0.3157,0.3134,0.3256,0.318,0.3186,0.319,0.3302,0.3322,0.3341,0.3106,0.3105,0.3105,0,0,0.28,0.284,0.288,0.2916,0.2971,0.2995,0.3007,0.3052,0.3069,0.311,0.3114,0.3155,0.3178,0.3205,0.3217,0.3282,0.3301,0.3282,0.3322,0.3431,0.345,0.3466,0.3544,0.3568,0.3279,0.328,0.328,0,0.2791,0.2848,0.2896,0.2941,0.2971,0.3001,0.3039,0.3066,0.3112,0.315,0.3126,0.3217,0.3213,0.3289,0.3302,0.3301,0.3359,0.3281,0.3443,0.3461,0.3477,0.3553,0.3578,0.3283,0.3283,0.3282,0.3282,0,0.2832,0.2877,0.2904,0.2972,0.3014,0.3053,0.3099,0.3142,0.3161,0.3198,0.3282,0.3298,0.3359,0.3359,0.334,0.3454,0.3457,0.3448,0.3419,0.3502,0.3576,0.3602,0.3288,0.3287,0.3286,0.3285,0,0,0.2807,0.2913,0.2917,0.2952,0.3033,0.3066,0.3133,0.3213,0.3268,0.3314,0.3403,0.3436,0.3466,0.3481,0.3484,0.355,0.3695,0.3541,0.3545,0.3619,0.3935,0.388,0.3902,0.3727,0.3732,0.3736,0.3941,0,0.2819,0.2898,0.2952,0.3014,0.3058,0.3122,0.3185,0.3263,0.3325,0.3419,0.3475,0.3548,0.3507,0.3542,0.3613,0.3684,0.3765,0.364,0.3842,0.3847,0.3791,0.393,0.3734,0.3897,0.3965,0.3969,0.3972,0,0.2836,0.289,0.296,0.3053,0.3079,0.3117,0.3239,0.3298,0.3443,0.3503,0.3609,0.3661,0.3775,0.3718,0.3909,0.3839,0.3893,0.3933,0.3942,0.3887,0.384,0.3825,0.3939,0.3813,0.4011,0.4008,0.4005,0,0.2803,0.2888,0.2943,0.2973,0.3088,0.3134,0.319,0.3327,0.3421,0.3565,0.3665,0.3799,0.389,0.3993,0.407,0.4016,0.4277,0.422,0.4226,0.4222,0.409,0.4066,0.4104,0.437,0.4369,0.4369,0.4368,0,0.2813,0.2853,0.2922,0.2958,0.3039,0.3106,0.3222,0.3308,0.3466,0.3594,0.3701,0.3831,0.3969,0.4123,0.416,0.4289,0.437,0.4272,0.4293,0.4103,0.408,0.3987,0.3939,0.4376,0.4375,0.4373,0.4372,0,0.2818,0.2855,0.2928,0.3014,0.3041,0.3102,0.3255,0.3346,0.3475,0.3652,0.3712,0.3927,0.4112,0.424,0.4423,0.4415,0.4402,0.4536,0.4287,0.4274,0.4113,0.4075,0.405,0.3939,0.4585,0.4585,0.4586,0,0.2854,0.2885,0.2965,0.3018,0.3065,0.3155,0.3237,0.3356,0.345,0.3698,0.3781,0.4022,0.4168,0.4431,0.4462,0.4569,0.4435,0.4442,0.4289,0.4116,0.4091,0.3937,0.3833,0.4145,0.4141,0.4139,0.4136,0,0.2944,0.2954,0.3023,0.3085,0.3153,0.3227,0.3316,0.339,0.353,0.3663,0.3832,0.3967,0.4211,0.4252,0.4401,0.4417,0.4212,0.4386,0.4287,0.3829,0.3588,0.3483,0.3983,0.4111,0.4113,0.4115,0.4117,0.4118,0.3031,0.3066,0.3114,0.317,0.323,0.3241,0.3254,0.3343,0.3445,0.3557,0.3766,0.3858,0.4017,0.4188,0.4199,0.4051,0.4061,0.3913,0.3911,0.3794,0.3584,0.4018,0.4111,0.4113,0.4115,0.4117,0.4119,0,0.3103,0.3111,0.3189,0.3205,0.3207,0.3229,0.3265,0.3228,0.3247,0.3397,0.3511,0.361,0.3669,0.3743,0.3715,0.3594,0.341,0.3493,0.3216,0.316,0.3624,0.3497,0.336,0.336,0.3361,0.3361,0.3361,0.3361,0.3152,0.318,0.3168,0.3146,0.3138,0.3048,0.3016,0.2981,0.3008,0.3018,0.3028,0.316,0.3351,0.3447,0.3324,0.3234,0.2994,0.2859,0.2892,0.3189,0.3225,0.326,0.3127,0.2915,0.2915,0.2247,0.2242,0.2238]},{"header":{"parameterUnit":"m.s-1","parameterCategory":2,"la1":30.2991,"la2":30.254,"lo1":-89.0895,"lo2":-89.0444,"dy":0.0017,"dx":0.0017,"nx":28,"ny":28,"refTime":"2025-03-23T03:00:00:Z","depth":"0","parameterNumber":3,"parameterNumberName":"V-component_of_CURRENTS"},"data":[0,0,0,0,0,0,0,0,0,0,0,0,0,0,0,0,0,0,0,0,0,0,0,0,0,0,0,0,0,0,0,0,0,0,0,0,0,0,0,0,0,0,0,0,0,0,0,0,0,0,0,0,0,0,0,0,0,0,0.0164,0.0164,0,0.015,0.0149,0.0149,0.0116,0.0115,0.0115,0.0114,0.0039,0.0037,0.0036,0,0,0,0,0,0,0,0,0,0,0,0,0,0.0147,0.0148,0.0164,0.0164,0.0164,0.015,0.0149,0.0149,0.0116,0.0115,0.0115,0.0114,0.0039,0.0037,0.0035,0,0,0,0,0,0,0,0,0,0,0,0,0,0.0144,0.0148,0.0164,0.0147,0.0145,0.015,0.0149,0.0149,0.0116,0.0115,0.0114,0.0114,0.004,0.0038,0.0035,0.0037,0,0,0.0028,0.0027,0,0,0,0,0,0,0,0,0.0144,0.0145,0.015,0.0148,0.0147,0.0135,0.0116,0.0109,0.0116,0.0125,0.0114,0.0113,0.0067,0.0063,0.006,0.0033,0.003,0.0028,0.0027,0.0026,0.0025,0,0,0,0,0,0,0,0.0145,0.0145,0.0156,0.015,0.0148,0.0135,0.0134,0.0114,0.0098,0.0124,0.0122,0.0124,0.0065,0.0062,0.0058,0.0029,0.0028,0.0026,0.0025,0.0024,-0.0019,-0.0018,0,0,0,0,0,0,0.0152,0.0145,0.0157,0.0156,0.0146,0.0136,0.0135,0.0138,0.01,0.0094,0.0125,0.0123,0.0066,0.006,0.0055,0.0056,0.0026,0.0024,0.0022,-0.0019,-0.0019,-0.0018,0,0,0,0,0,0,0.0152,0.0153,0.0157,0.0152,0.0151,0.0138,0.0142,0.0138,0.0133,0.0101,0.0093,0.0123,0.0066,0.0058,0.0044,0.0053,0.0022,0.002,-0.0019,-0.0019,-0.0018,0.0057,0,0,0,0,0,0,0.0151,0.0153,0.0157,0.0152,0.0152,0.0167,0.0143,0.0139,0.0136,0.0133,0.0097,0.0089,0.0064,0.0047,0.0041,0.0049,0.0019,-0.0019,-0.0019,-0.0019,0.0054,0.006,0.0065,0,0,0,0,0,0.0151,0.017,0.0157,0.0158,0.0158,0.0168,0.0167,0.0153,0.0137,0.0143,0.0118,0.009,0.0045,0.0046,0.0039,0.0046,-0.002,-0.0019,-0.0019,0.0052,0.0059,0.0065,0,0,0,0,0,0,0.0173,0.0168,0.0154,0.0172,0.0169,0.0163,0.017,0.0157,0.0143,0.0137,0.0099,0.0091,0.0078,0.0052,0.0054,0.0033,0.0006,0.0005,0.0062,0.0068,0.0073,0.0104,0.0017,0,0,0,0,0,0.0177,0.0185,0.0178,0.0192,0.0192,0.0178,0.0179,0.0171,0.016,0.0152,0.0127,0.0098,0.0076,0.0065,0.004,0.0036,0.0031,0.0032,0.0038,0.0043,0.0061,0.0072,0.0081,-0.0016,-0.0016,-0.0016,0,0,0.0192,0.0189,0.0194,0.0196,0.0191,0.021,0.0177,0.0186,0.0201,0.0146,0.0153,0.0115,0.0078,0.0071,0.0063,0.0051,0.0065,0.0043,0.0048,0.0064,0.0074,0.0084,0.0092,-0.0016,-0.0016,-0.0016,0,0,0.0236,0.0219,0.0244,0.0243,0.024,0.0234,0.0238,0.0231,0.0224,0.0226,0.0187,0.0162,0.013,0.011,0.0094,0.0114,0.0091,0.0095,0.0152,0.0162,0.0171,0.0179,0.0182,0.0189,0.0101,0.0101,0.0101,0,0.0252,0.0281,0.0254,0.0276,0.0287,0.025,0.0285,0.0276,0.0265,0.0271,0.0237,0.0202,0.0154,0.0161,0.0155,0.0128,0.013,0.0133,0.0172,0.018,0.0186,0.0188,0.0195,0.0105,0.0104,0.0104,0.0104,0,0.0316,0.0335,0.0351,0.0364,0.037,0.0393,0.0378,0.0381,0.0361,0.0352,0.0349,0.029,0.0275,0.0242,0.0199,0.022,0.0204,0.0178,0.0164,0.0201,0.0199,0.0206,0.011,0.0109,0.0108,0.0107,0,0,0.0365,0.0393,0.0398,0.043,0.0419,0.0445,0.0458,0.0477,0.0521,0.0468,0.052,0.0436,0.0402,0.0381,0.0324,0.0314,0.0336,0.0267,0.0266,0.0284,0.0364,0.0328,0.0331,0.0323,0.0325,0.0326,0.0342,0,0.0426,0.0506,0.0488,0.0562,0.0606,0.0571,0.0607,0.0612,0.0604,0.0642,0.0566,0.0588,0.0457,0.0468,0.0426,0.0374,0.0357,0.0334,0.0312,0.0312,0.0288,0.0339,0.0291,0.03,0.0348,0.0349,0.035,0,0.0495,0.0545,0.0634,0.0696,0.0712,0.0744,0.0806,0.0835,0.0848,0.0846,0.0822,0.0774,0.0737,0.0636,0.0548,0.0543,0.0457,0.04,0.0399,0.0349,0.0289,0.0268,0.0309,0.0134,0.036,0.0359,0.0358,0,0.0581,0.0645,0.073,0.0746,0.0805,0.0842,0.0877,0.0905,0.0971,0.0996,0.1053,0.097,0.0982,0.0851,0.0678,0.0635,0.0597,0.0529,0.0414,0.041,0.0356,0.0345,0.0239,0.0481,0.0481,0.0481,0.0481,0,0.0667,0.0739,0.0784,0.0838,0.0962,0.0954,0.1085,0.1106,0.1174,0.1278,0.1177,0.1246,0.1042,0.0972,0.0776,0.0621,0.0669,0.0445,0.0422,0.0378,0.0369,0.0203,0.0092,0.0482,0.0482,0.0481,0.0481,0,0.0775,0.0793,0.0904,0.0978,0.1013,0.1112,0.1235,0.1332,0.1375,0.1513,0.1539,0.1495,0.1399,0.1175,0.0996,0.0788,0.0511,0.055,0.0503,0.0474,0.0185,0.0081,-0.0033,-0.0113,0.044,0.0439,0.0439,0,0.0854,0.0917,0.1024,0.11,0.1144,0.1277,0.1374,0.1439,0.1541,0.1663,0.1744,0.1709,0.1682,0.1399,0.1034,0.0722,0.0521,0.0476,0.0369,0.0184,0.0052,-0.0016,-0.008,0.0323,0.0322,0.0321,0.032,0,0.1015,0.1034,0.1128,0.1254,0.1363,0.1501,0.1634,0.1746,0.183,0.1944,0.2056,0.2056,0.1782,0.1447,0.102,0.0775,0.0334,0.0443,0.027,-0.0025,-0.0122,-0.0214,0.029,0.031,0.0311,0.0311,0.0312,0.0312,0.1141,0.1215,0.1294,0.1411,0.154,0.1677,0.1804,0.1937,0.2107,0.2268,0.2264,0.228,0.1803,0.1212,0.0882,0.0247,0.0268,0.0038,-0.0063,-0.0105,-0.0216,0.0266,0.0244,0.0244,0.0245,0.0245,0.0246,0,0.125,0.1306,0.1437,0.1563,0.1692,0.1735,0.1938,0.2061,0.2247,0.2386,0.2477,0.2214,0.1636,0.1046,0.0202,-0.0195,-0.0342,-0.0409,-0.0533,-0.0568,-0.0123,-0.0164,-0.0296,-0.0296,-0.0296,-0.0296,-0.0296,-0.0295,0.1319,0.1414,0.1439,0.1634,0.1739,0.1913,0.2026,0.2216,0.2345,0.2489,0.2471,0.2447,0.1943,0.05,-0.045,-0.0659,-0.0911,-0.0985,-0.1071,-0.0808,-0.0774,-0.0742,-0.0805,-0.107,-0.1071,-0.1483,-0.1488,-0.1491]}],[{"header":{"parameterUnit":"m.s-1","parameterCategory":2,"la1":30.2991,"la2":30.254,"lo1":-89.0895,"lo2":-89.0444,"dy":0.0017,"dx":0.0017,"nx":28,"ny":28,"refTime":"2025-03-23T03:00:00:Z","depth":"2","parameterNumber":2,"parameterNumberName":"U-component_of_CURRENTS"},"data":[0,0,0,0,0,0,0,0,0,0,0,0,0,0,0,0,0,0,0,0,0,0,0,0,0,0,0,0,0,0,0,0,0,0,0,0,0,0,0,0,0,0,0,0,0,0,0,0,0,0,0,0,0,0,0,0,0,0,0.2531,0.2531,0,0.2592,0.2592,0.2592,0.2588,0.2587,0.2587,0.2586,0.2606,0.2607,0.2608,0,0,0,0,0,0,0,0,0,0,0,0,0,0.2424,0.2425,0.253,0.2531,0.2533,0.2591,0.2592,0.2593,0.2588,0.2587,0.2586,0.2586,0.2605,0.2607,0.2608,0,0,0,0,0,0,0,0,0,0,0,0,0,0.2473,0.2426,0.253,0.2539,0.2541,0.2591,0.2592,0.2593,0.2588,0.2587,0.2586,0.2585,0.2605,0.2607,0.2608,0.2638,0,0,0.2613,0.2614,0,0,0,0,0,0,0,0,0.247,0.2477,0.2537,0.2539,0.2541,0.2584,0.2562,0.2607,0.2588,0.2567,0.2586,0.2585,0.2597,0.2599,0.2609,0.2639,0.264,0.2614,0.2615,0.2615,0.2616,0,0,0,0,0,0,0,0.2467,0.2474,0.2552,0.2538,0.2541,0.2546,0.2551,0.257,0.2584,0.2569,0.257,0.2581,0.2597,0.2608,0.261,0.264,0.2613,0.2615,0.2616,0.2617,0.274,0.2743,0,0,0,0,0,0,0.2466,0.2471,0.255,0.2554,0.2506,0.2548,0.2554,0.2569,0.2584,0.2587,0.2582,0.2581,0.2605,0.2608,0.261,0.2684,0.2615,0.2617,0.2618,0.2738,0.2741,0.2743,0,0,0,0,0,0,0.2464,0.2473,0.2547,0.2516,0.2526,0.2552,0.2567,0.257,0.2602,0.2596,0.2596,0.2613,0.2605,0.2608,0.2651,0.2683,0.2618,0.2619,0.2735,0.2739,0.2742,0.2808,0,0,0,0,0,0,0.246,0.2471,0.2498,0.2516,0.2528,0.2602,0.2569,0.2572,0.2611,0.261,0.2622,0.2622,0.2604,0.2648,0.2652,0.2684,0.262,0.2733,0.2737,0.2741,0.2803,0.2813,0.2822,0,0,0,0,0,0.2456,0.2502,0.2499,0.2509,0.2558,0.2605,0.2612,0.2624,0.2613,0.2645,0.2647,0.2622,0.2678,0.2652,0.2656,0.2689,0.273,0.2736,0.2741,0.2798,0.2811,0.2821,0,0,0,0,0,0,0.2463,0.2507,0.2503,0.2557,0.2587,0.2606,0.2638,0.2645,0.2673,0.2667,0.2654,0.2656,0.2706,0.2697,0.2669,0.274,0.27,0.2706,0.2742,0.2754,0.2763,0.2784,0.2622,0,0,0,0,0,0.2478,0.2519,0.2553,0.259,0.2611,0.2627,0.2653,0.2659,0.268,0.2691,0.2697,0.2706,0.273,0.2741,0.2758,0.28,0.2819,0.2825,0.2834,0.2842,0.2864,0.2919,0.2935,0.276,0.276,0.276,0,0,0.2475,0.2515,0.2528,0.2594,0.2611,0.2651,0.264,0.2684,0.2709,0.2689,0.2731,0.2746,0.2752,0.2795,0.2816,0.279,0.2906,0.2849,0.2855,0.2873,0.2926,0.2943,0.2958,0.2764,0.2763,0.2762,0,0,0.2501,0.2538,0.2582,0.2626,0.2678,0.2685,0.2706,0.2741,0.2756,0.2804,0.2793,0.2838,0.2864,0.2879,0.2888,0.2968,0.2959,0.2968,0.3027,0.3079,0.3094,0.3107,0.3165,0.3183,0.2966,0.2966,0.2966,0,0.2496,0.2557,0.26,0.2665,0.2695,0.2704,0.2746,0.2771,0.2812,0.2843,0.2825,0.2907,0.2907,0.2973,0.2994,0.2989,0.3019,0.2976,0.3091,0.3105,0.3117,0.3173,0.3192,0.297,0.297,0.2969,0.2969,0,0.2567,0.2611,0.2643,0.2712,0.2757,0.2796,0.2832,0.2868,0.288,0.2912,0.2993,0.3006,0.3061,0.3063,0.305,0.3141,0.3135,0.31,0.3058,0.3138,0.3193,0.3211,0.2975,0.2974,0.2973,0.2972,0,0,0.2536,0.2662,0.2665,0.2698,0.2785,0.2814,0.2873,0.2933,0.298,0.303,0.3104,0.3154,0.3186,0.32,0.3197,0.3234,0.3342,0.3208,0.3209,0.326,0.3474,0.3353,0.3361,0.3323,0.3326,0.3329,0.3481,0,0.2557,0.2659,0.2725,0.2781,0.2825,0.2875,0.2929,0.2995,0.3044,0.3121,0.3172,0.324,0.3229,0.3258,0.3308,0.3336,0.3392,0.3305,0.3395,0.3398,0.3275,0.3379,0.3105,0.3207,0.3499,0.3502,0.3504,0,0.2593,0.2656,0.2734,0.2812,0.2837,0.288,0.2965,0.3023,0.3144,0.3193,0.3295,0.3342,0.3444,0.3393,0.3527,0.3474,0.3497,0.3504,0.351,0.3387,0.3311,0.3174,0.3229,0.3534,0.3532,0.353,0.3528,0,0.2544,0.264,0.2693,0.2733,0.2846,0.2885,0.293,0.3051,0.313,0.325,0.3332,0.3449,0.3529,0.3581,0.3619,0.3592,0.3732,0.3692,0.3614,0.3606,0.3387,0.3353,0.3788,0.3788,0.3788,0.3787,0.3787,0,0.2551,0.2587,0.2671,0.2716,0.2777,0.2859,0.2956,0.3022,0.3162,0.3268,0.3374,0.347,0.3581,0.3671,0.3675,0.3709,0.3794,0.366,0.3645,0.3402,0.3369,0.3651,0.3633,0.3793,0.3792,0.3791,0.379,0,0.2539,0.2583,0.2657,0.2752,0.2773,0.283,0.2973,0.3055,0.3174,0.3314,0.3363,0.3547,0.366,0.3735,0.3826,0.3787,0.3801,0.3778,0.3487,0.3434,0.3639,0.3623,0.3756,0.3753,0.3751,0.3749,0.3747,0,0.2579,0.2611,0.2686,0.2726,0.2781,0.2866,0.2936,0.3051,0.3134,0.3338,0.3394,0.3574,0.3636,0.3744,0.3708,0.3714,0.3785,0.3458,0.3348,0.3668,0.3641,0.3628,0.3616,0.3103,0.3096,0.3091,0.3086,0,0.2678,0.2683,0.2745,0.2784,0.284,0.2907,0.2988,0.3024,0.3155,0.3261,0.3359,0.3418,0.3536,0.3424,0.3442,0.3399,0.3431,0.3344,0.3776,0.313,0.3057,0.3028,0.3037,0.3037,0.3042,0.3045,0.3048,0.305,0.277,0.2785,0.2817,0.2843,0.2909,0.2894,0.288,0.2948,0.3006,0.3029,0.3179,0.3151,0.3183,0.3067,0.2986,0.2956,0.3182,0.3048,0.3064,0.3086,0.296,0.2883,0.2809,0.2812,0.2816,0.2818,0.2821,0,0.2816,0.281,0.2865,0.2858,0.2869,0.2909,0.2887,0.2793,0.2751,0.2809,0.2826,0.2575,0.2519,0.2576,0.2449,0.2447,0.241,0.2368,0.2302,0.2354,0.2399,0.2235,0.1895,0.1892,0.1889,0.1886,0,0,0.2854,0.2828,0.2783,0.277,0.2794,0.2742,0.2668,0.2506,0.2454,0.2283,0.2243,0.2366,0.2477,0.2133,0.2109,0.1989,0.215,0.1916,0.2663,0.2637,0.2679,0.2803,0.261,0,0,0,0,0]},{"header":{"parameterUnit":"m.s-1","parameterCategory":2,"la1":30.2991,"la2":30.254,"lo1":-89.0895,"lo2":-89.0444,"dy":0.0017,"dx":0.0017,"nx":28,"ny":28,"refTime":"2025-03-23T03:00:00:Z","depth":"2","parameterNumber":3,"parameterNumberName":"V-component_of_CURRENTS"},"data":[0,0,0,0,0,0,0,0,0,0,0,0,0,0,0,0,0,0,0,0,0,0,0,0,0,0,0,0,0,0,0,0,0,0,0,0,0,0,0,0,0,0,0,0,0,0,0,0,0,0,0,0,0,0,0,0,0,0,-0.0028,-0.0028,0,-0.0046,-0.0046,-0.0047,-0.0078,-0.0079,-0.0079,-0.008,-0.0148,-0.0149,-0.015,0,0,0,0,0,0,0,0,0,0,0,0,0,-0.0031,-0.0031,-0.0028,-0.0028,-0.0028,-0.0046,-0.0047,-0.0047,-0.0078,-0.0079,-0.0079,-0.008,-0.0147,-0.0149,-0.015,0,0,0,0,0,0,0,0,0,0,0,0,0,-0.0039,-0.0031,-0.0028,-0.0044,-0.0046,-0.0046,-0.0047,-0.0047,-0.0078,-0.0079,-0.008,-0.008,-0.0147,-0.0149,-0.0151,-0.015,0,0,-0.0157,-0.0158,0,0,0,0,0,0,0,0,-0.0039,-0.0039,-0.0042,-0.0043,-0.0045,-0.0059,-0.0073,-0.0083,-0.0078,-0.0068,-0.008,-0.008,-0.0121,-0.0125,-0.0129,-0.0153,-0.0156,-0.0157,-0.0158,-0.0159,-0.016,0,0,0,0,0,0,0,-0.0038,-0.0039,-0.0036,-0.0042,-0.0044,-0.0055,-0.0057,-0.0075,-0.0092,-0.0069,-0.0071,-0.007,-0.0123,-0.0127,-0.0131,-0.0157,-0.0157,-0.0159,-0.016,-0.0161,-0.019,-0.019,0,0,0,0,0,0,-0.0031,-0.0038,-0.0036,-0.0037,-0.0042,-0.0054,-0.0057,-0.0055,-0.0091,-0.0097,-0.0069,-0.0071,-0.0123,-0.0128,-0.0133,-0.0127,-0.0159,-0.0161,-0.0162,-0.0191,-0.019,-0.019,0,0,0,0,0,0,-0.0031,-0.0031,-0.0035,-0.0037,-0.0038,-0.0053,-0.0052,-0.0055,-0.0058,-0.0091,-0.0098,-0.0068,-0.0123,-0.013,-0.0139,-0.013,-0.0162,-0.0164,-0.0191,-0.0191,-0.019,-0.012,0,0,0,0,0,0,-0.0031,-0.0031,-0.0027,-0.0036,-0.0038,-0.0024,-0.0051,-0.0055,-0.0056,-0.0058,-0.0092,-0.0099,-0.0125,-0.0136,-0.0141,-0.0134,-0.0166,-0.0192,-0.0191,-0.019,-0.0122,-0.0117,-0.0111,0,0,0,0,0,-0.0031,-0.0014,-0.0026,-0.0026,-0.0032,-0.0022,-0.0024,-0.0039,-0.0055,-0.0046,-0.007,-0.0098,-0.0135,-0.0137,-0.0143,-0.0136,-0.0192,-0.0191,-0.019,-0.0125,-0.0118,-0.0112,0,0,0,0,0,0,-0.0005,-0.0016,-0.003,-0.0015,-0.0016,-0.0027,-0.0019,-0.0032,-0.0044,-0.0049,-0.0087,-0.0094,-0.0102,-0.0127,-0.0128,-0.0143,-0.017,-0.017,-0.0118,-0.0112,-0.0107,-0.0079,-0.0167,0,0,0,0,0,0.0,0.0004,-0.0004,0.0007,0.0008,-0.0007,-0.0006,-0.0014,-0.0025,-0.0031,-0.0055,-0.0082,-0.0102,-0.0112,-0.0133,-0.0136,-0.0159,-0.0138,-0.0133,-0.0128,-0.011,-0.0142,-0.0137,-0.0186,-0.0186,-0.0186,0,0,0.0015,0.0009,0.0011,0.0012,0.0007,0.0027,-0.0008,0.0003,0.0017,-0.0036,-0.0029,-0.0063,-0.0099,-0.0103,-0.0109,-0.0122,-0.0126,-0.0126,-0.0122,-0.0107,-0.014,-0.0135,-0.0131,-0.0185,-0.0186,-0.0186,0,0,0.0057,0.0039,0.0061,0.0062,0.0062,0.0055,0.0061,0.0053,0.0045,0.005,0.001,-0.0012,-0.0038,-0.0062,-0.0078,-0.0054,-0.0096,-0.0069,-0.0016,-0.0047,-0.0043,-0.004,-0.0059,-0.0058,-0.0065,-0.0064,-0.0064,0,0.0073,0.01,0.0071,0.0096,0.0106,0.0072,0.0107,0.0098,0.0088,0.0088,0.0063,0.0023,-0.0016,-0.002,-0.0017,-0.0041,-0.0061,-0.0038,-0.0039,-0.0036,-0.0034,-0.0055,-0.0055,-0.0061,-0.0061,-0.0062,-0.0062,0,0.0137,0.0155,0.0171,0.0185,0.0191,0.0215,0.0201,0.0202,0.0182,0.017,0.0159,0.0107,0.0087,0.0061,0.0029,0.0025,0.0005,-0.0029,-0.0052,-0.0024,-0.0049,-0.005,-0.0056,-0.0057,-0.0058,-0.0059,0,0,0.0178,0.021,0.0214,0.0241,0.024,0.0259,0.0274,0.0285,0.0309,0.0269,0.0291,0.0233,0.0198,0.0178,0.0126,0.0093,0.0079,0.0045,0.0042,0.0033,0.0022,-0.0034,-0.0041,0.0043,0.0044,0.0044,0.0,0,0.0238,0.0312,0.0302,0.0367,0.0405,0.0375,0.0402,0.0399,0.0385,0.0395,0.0326,0.0328,0.0245,0.0242,0.0192,0.0112,0.008,0.0095,-0.0009,-0.0012,-0.0059,-0.0043,-0.0027,-0.0068,-0.0001,-0.0001,-0.0002,0,0.03,0.0345,0.0427,0.0472,0.0485,0.0515,0.0548,0.0571,0.0558,0.0545,0.0514,0.0464,0.0413,0.034,0.0218,0.0232,0.014,0.0068,0.0064,-0.001,-0.0069,-0.0087,-0.0073,-0.0004,-0.0004,-0.0004,-0.0003,0,0.0358,0.0423,0.0496,0.0513,0.0562,0.059,0.0615,0.0622,0.0662,0.0651,0.0677,0.0587,0.0574,0.0436,0.0262,0.0252,0.0119,0.0086,-0.0048,-0.0053,-0.007,-0.0077,0.0007,0.0007,0.0007,0.0007,0.0007,0,0.0425,0.0482,0.0535,0.058,0.0667,0.0672,0.076,0.0762,0.0799,0.086,0.077,0.0791,0.0599,0.0489,0.0311,0.0122,0.0153,-0.0028,-0.0067,-0.0046,-0.005,-0.0022,-0.0024,0.0006,0.0006,0.0006,0.0007,0,0.0485,0.0518,0.0607,0.0677,0.0701,0.0769,0.086,0.0923,0.0949,0.1026,0.1034,0.0964,0.0825,0.0603,0.0387,0.0212,0.0017,-0.0062,-0.0024,-0.0059,-0.0139,-0.0137,-0.0182,-0.0184,-0.0186,-0.0188,-0.0189,0,0.053,0.0588,0.068,0.0725,0.0763,0.0861,0.0929,0.0989,0.1056,0.1126,0.1163,0.1081,0.0993,0.0648,0.0336,0.0024,-0.0005,-0.0154,-0.0177,-0.0124,-0.0158,-0.0153,-0.0149,-0.0166,-0.0167,-0.0167,-0.0168,0,0.0621,0.0649,0.0714,0.0786,0.0865,0.097,0.1067,0.115,0.1228,0.1318,0.1363,0.1308,0.0995,0.0677,0.0256,0.0045,-0.0108,-0.0181,-0.0131,-0.013,-0.0115,-0.0146,-0.0141,-0.0176,-0.0175,-0.0175,-0.0174,-0.0174,0.0676,0.0694,0.0741,0.0807,0.0924,0.1022,0.1098,0.1253,0.1393,0.151,0.1464,0.1407,0.1047,0.0506,0.016,-0.0168,-0.0154,-0.0274,-0.0268,-0.0262,-0.0262,-0.0253,-0.0338,-0.0338,-0.0338,-0.0338,-0.0338,0,0.0641,0.0652,0.0732,0.0782,0.0885,0.099,0.1137,0.1245,0.1434,0.1575,0.1618,0.1265,0.0915,0.0539,0.0043,-0.028,-0.0285,-0.0364,-0.0296,-0.0287,-0.028,-0.0278,-0.036,-0.0361,-0.0362,-0.0362,0,0,0.0612,0.0586,0.0579,0.0678,0.0797,0.0962,0.1062,0.1284,0.1421,0.1581,0.1589,0.1473,0.1003,0.064,0.0209,-0.0057,-0.009,-0.0113,-0.0069,0.007,0.0082,-0.0212,-0.02,0,0,0,0,0]}],[{"header":{"parameterUnit":"m.s-1","parameterCategory":2,"la1":30.2991,"la2":30.254,"lo1":-89.0895,"lo2":-89.0444,"dy":0.0017,"dx":0.0017,"nx":28,"ny":28,"refTime":"2025-03-23T03:00:00:Z","depth":"4","parameterNumber":2,"parameterNumberName":"U-component_of_CURRENTS"},"data":[0,0,0,0,0,0,0,0,0,0,0,0,0,0,0,0,0,0,0,0,0,0,0,0,0,0,0,0,0,0,0,0,0,0,0,0,0,0,0,0,0,0,0,0,0,0,0,0,0,0,0,0,0,0,0,0,0,0,0.1234,0.1235,0,0.133,0.1331,0.1332,0.1429,0.143,0.1431,0.1432,0.1519,0.152,0.1521,0,0,0,0,0,0,0,0,0,0,0,0,0,0.1184,0.1184,0.1234,0.1235,0.1236,0.133,0.1331,0.1333,0.1429,0.143,0.1432,0.1433,0.1518,0.152,0.1522,0,0,0,0,0,0,0,0,0,0,0,0,0,0.1238,0.1185,0.1234,0.1293,0.13,0.1329,0.1331,0.1333,0.1429,0.143,0.1432,0.1433,0.1518,0.152,0.1522,0.1502,0,0,0.1528,0.1529,0,0,0,0,0,0,0,0,0.1234,0.124,0.1284,0.1289,0.1296,0.1367,0.1345,0.1388,0.1428,0.1382,0.1432,0.1434,0.1464,0.1471,0.1489,0.1506,0.151,0.1528,0.1529,0.153,0.1531,0,0,0,0,0,0,0,0.1231,0.1236,0.1275,0.1285,0.1292,0.1332,0.1341,0.1354,0.1415,0.1387,0.1393,0.1399,0.1468,0.1487,0.1492,0.1511,0.1528,0.153,0.1531,0.1532,0.1636,0.1637,0,0,0,0,0,0,0.1209,0.1232,0.1272,0.1277,0.1266,0.1331,0.1342,0.1345,0.1415,0.1427,0.1398,0.1403,0.1483,0.1489,0.1495,0.1594,0.153,0.1532,0.1533,0.1634,0.1636,0.1638,0,0,0,0,0,0,0.1207,0.1211,0.1268,0.1255,0.1265,0.133,0.1333,0.1346,0.1395,0.1423,0.1436,0.1437,0.1484,0.1492,0.1546,0.1593,0.1533,0.1535,0.1633,0.1635,0.1637,0.1715,0,0,0,0,0,0,0.1206,0.121,0.1223,0.1254,0.1265,0.131,0.1331,0.1346,0.1393,0.1402,0.146,0.1468,0.1486,0.1543,0.1548,0.1595,0.1536,0.163,0.1634,0.1636,0.1711,0.172,0.1728,0,0,0,0,0,0.1203,0.1198,0.1223,0.1229,0.1274,0.1311,0.1322,0.1374,0.1393,0.1423,0.1467,0.1468,0.1565,0.1546,0.1551,0.16,0.1629,0.1633,0.1636,0.1707,0.1718,0.1728,0,0,0,0,0,0,0.1195,0.1208,0.1236,0.124,0.1288,0.1327,0.1363,0.1384,0.1441,0.1465,0.1484,0.1496,0.1568,0.1562,0.1539,0.1638,0.1598,0.1603,0.165,0.1661,0.167,0.1661,0.1538,0,0,0,0,0,0.1194,0.1192,0.1229,0.1244,0.1273,0.1323,0.135,0.1386,0.1428,0.1458,0.1501,0.1542,0.1579,0.1603,0.164,0.168,0.1684,0.1715,0.1723,0.1731,0.1727,0.1799,0.1814,0.165,0.165,0.165,0,0,0.1202,0.1204,0.1212,0.1242,0.1293,0.1332,0.1347,0.1401,0.1442,0.1454,0.1543,0.158,0.1598,0.1665,0.1694,0.167,0.1776,0.1735,0.1742,0.1734,0.1804,0.182,0.1835,0.1652,0.1652,0.1651,0,0,0.1191,0.1224,0.1221,0.1257,0.1317,0.1358,0.1376,0.1443,0.1494,0.1559,0.1591,0.1648,0.1704,0.1737,0.175,0.1817,0.1826,0.184,0.1874,0.1945,0.1959,0.1972,0.1984,0.1997,0.1838,0.1839,0.1839,0,0.1209,0.1213,0.1234,0.1247,0.1301,0.1369,0.1416,0.146,0.1539,0.1588,0.16,0.1718,0.1733,0.1803,0.1834,0.1837,0.1868,0.1836,0.1958,0.197,0.1982,0.1991,0.2005,0.1843,0.1842,0.1842,0.1841,0,0.1186,0.1223,0.1238,0.1284,0.1334,0.1399,0.1465,0.1541,0.1611,0.1652,0.1762,0.1799,0.1867,0.1884,0.1876,0.1972,0.1963,0.1968,0.1933,0.2003,0.2008,0.2021,0.1849,0.1847,0.1846,0.1845,0,0,0.117,0.1217,0.1233,0.1279,0.1378,0.1415,0.1512,0.1617,0.168,0.1767,0.1852,0.1918,0.1957,0.1973,0.1994,0.2039,0.2133,0.2044,0.2045,0.2056,0.2271,0.2109,0.2106,0.2186,0.2189,0.2191,0.2236,0,0.1185,0.1219,0.1242,0.1333,0.1393,0.149,0.1561,0.1653,0.175,0.1843,0.1906,0.1989,0.1984,0.2037,0.2088,0.2138,0.2174,0.2118,0.2199,0.2199,0.2049,0.2118,0.2201,0.2245,0.2248,0.225,0.2251,0,0.1168,0.121,0.129,0.139,0.1425,0.1487,0.1657,0.1718,0.1847,0.1914,0.2019,0.2072,0.2167,0.2146,0.2265,0.2245,0.2261,0.2276,0.2279,0.2106,0.2061,0.2163,0.2274,0.2272,0.227,0.2269,0.2267,0,0.1172,0.1246,0.1324,0.1362,0.1473,0.1553,0.1636,0.1767,0.1826,0.1982,0.2055,0.2167,0.2239,0.2311,0.2345,0.2339,0.2445,0.2438,0.2293,0.228,0.2378,0.2364,0.2505,0.2505,0.2505,0.2505,0.2505,0,0.118,0.1246,0.1335,0.1392,0.1481,0.1563,0.168,0.177,0.189,0.1951,0.2098,0.2167,0.2294,0.2366,0.2386,0.2371,0.2489,0.23,0.2292,0.2405,0.2394,0.2385,0.2371,0.2507,0.2506,0.2506,0.2506,0,0.1159,0.1227,0.1315,0.1448,0.149,0.1558,0.1688,0.1735,0.1889,0.1987,0.2046,0.2197,0.2296,0.2373,0.2461,0.2399,0.2412,0.2366,0.2454,0.245,0.2185,0.2174,0.2223,0.2218,0.2213,0.221,0.2207,0,0.1144,0.1186,0.1332,0.1354,0.1423,0.1528,0.1575,0.1728,0.1774,0.1981,0.2,0.2157,0.2243,0.2239,0.2328,0.235,0.2317,0.2298,0.2256,0.2174,0.2163,0.2159,0.2154,0.22,0.2199,0.2198,0.2197,0,0.1088,0.1152,0.1203,0.1248,0.1313,0.1382,0.1481,0.1517,0.1676,0.1849,0.1923,0.1993,0.2078,0.2135,0.2155,0.2169,0.2309,0.2252,0.2261,0.2222,0.2147,0.2139,0.2139,0.2182,0.2184,0.2185,0.2186,0,0.0972,0.1008,0.1031,0.1065,0.1131,0.1167,0.1287,0.1348,0.1431,0.1686,0.1704,0.1888,0.2039,0.204,0.2069,0.2065,0.2039,0.1973,0.1995,0.2013,0.1925,0.1798,0.1723,0,0,0,0,0,0.081,0.0805,0.0812,0.0837,0.0913,0.0959,0.1132,0.1257,0.1477,0.1476,0.1585,0.1666,0.1745,0.1835,0.1789,0.1954,0.2021,0.189,0.1949,0.2098,0.2116,0.2032,0,0,0,0,0,0,0.0666,0.0661,0.0714,0.0613,0.0612,0.0676,0.0808,0.0994,0.1023,0.1271,0.1326,0.1523,0.1619,0.172,0.173,0.1758,0.1756,0.201,0.2006,0.2089,0.2104,0.2118,0.2038,0,0,0,0,0]},{"header":{"parameterUnit":"m.s-1","parameterCategory":2,"la1":30.2991,"la2":30.254,"lo1":-89.0895,"lo2":-89.0444,"dy":0.0017,"dx":0.0017,"nx":28,"ny":28,"refTime":"2025-03-23T03:00:00:Z","depth":"4","parameterNumber":3,"parameterNumberName":"V-component_of_CURRENTS"},"data":[0,0,0,0,0,0,0,0,0,0,0,0,0,0,0,0,0,0,0,0,0,0,0,0,0,0,0,0,0,0,0,0,0,0,0,0,0,0,0,0,0,0,0,0,0,0,0,0,0,0,0,0,0,0,0,0,0,0,-0.0014,-0.0014,0,-0.0032,-0.0032,-0.0033,-0.0068,-0.0068,-0.0069,-0.0069,-0.0119,-0.012,-0.0121,0,0,0,0,0,0,0,0,0,0,0,0,0,-0.0024,-0.0024,-0.0014,-0.0014,-0.0014,-0.0032,-0.0032,-0.0033,-0.0067,-0.0068,-0.0069,-0.0069,-0.0119,-0.012,-0.0121,0,0,0,0,0,0,0,0,0,0,0,0,0,-0.0031,-0.0024,-0.0014,-0.0032,-0.0034,-0.0032,-0.0032,-0.0033,-0.0067,-0.0068,-0.0069,-0.007,-0.0119,-0.012,-0.0121,-0.0114,0,0,-0.0125,-0.0126,0,0,0,0,0,0,0,0,-0.003,-0.003,-0.0029,-0.0031,-0.0032,-0.0047,-0.0054,-0.0061,-0.0067,-0.0056,-0.0069,-0.007,-0.0096,-0.0099,-0.0103,-0.0116,-0.0118,-0.0125,-0.0126,-0.0127,-0.0127,0,0,0,0,0,0,0,-0.003,-0.003,-0.0023,-0.0029,-0.0031,-0.0044,-0.0046,-0.0056,-0.0074,-0.0057,-0.0059,-0.0058,-0.0098,-0.0102,-0.0105,-0.0119,-0.0125,-0.0126,-0.0127,-0.0128,-0.0148,-0.0148,0,0,0,0,0,0,-0.0022,-0.0029,-0.0022,-0.0023,-0.0031,-0.0043,-0.0046,-0.0043,-0.0073,-0.0078,-0.0058,-0.006,-0.0099,-0.0103,-0.0107,-0.0108,-0.0126,-0.0128,-0.0128,-0.0148,-0.0148,-0.0148,0,0,0,0,0,0,-0.0022,-0.0021,-0.0021,-0.0025,-0.0026,-0.0042,-0.0039,-0.0043,-0.005,-0.0073,-0.0078,-0.0061,-0.01,-0.0105,-0.0114,-0.011,-0.0128,-0.0129,-0.0149,-0.0148,-0.0148,-0.0105,0,0,0,0,0,0,-0.0022,-0.0021,-0.0016,-0.0025,-0.0026,-0.0015,-0.0038,-0.0042,-0.0047,-0.005,-0.0077,-0.0083,-0.0101,-0.0112,-0.0115,-0.0112,-0.013,-0.0149,-0.0149,-0.0148,-0.0106,-0.0103,-0.01,0,0,0,0,0,-0.0022,-0.0007,-0.0016,-0.0015,-0.0019,-0.0014,-0.0016,-0.0032,-0.0046,-0.0043,-0.0064,-0.0082,-0.0112,-0.0112,-0.0117,-0.0113,-0.0149,-0.0149,-0.0148,-0.0108,-0.0104,-0.01,0,0,0,0,0,0,-0.0006,-0.001,-0.0019,-0.0006,-0.0009,-0.0019,-0.0015,-0.0028,-0.0041,-0.0046,-0.0075,-0.0081,-0.009,-0.0105,-0.0105,-0.0119,-0.0135,-0.0135,-0.0103,-0.0099,-0.0096,-0.0091,-0.0132,0,0,0,0,0,-0.0001,0.0007,0.0,0.0011,0.0011,-0.0004,-0.0005,-0.0013,-0.0025,-0.0032,-0.0052,-0.0073,-0.009,-0.0097,-0.0113,-0.0115,-0.0148,-0.0117,-0.0114,-0.0111,-0.011,-0.0157,-0.0158,-0.0146,-0.0146,-0.0146,0,0,0.0008,0.0008,0.0012,0.0015,0.0009,0.0019,-0.0007,-0.0002,0.0005,-0.0034,-0.0035,-0.0062,-0.0088,-0.0094,-0.0099,-0.0106,-0.0131,-0.011,-0.0108,-0.0108,-0.0157,-0.0158,-0.0159,-0.0146,-0.0146,-0.0146,0,0,0.0038,0.003,0.0047,0.0046,0.0045,0.0039,0.0041,0.0032,0.0023,0.0023,-0.0009,-0.0034,-0.0049,-0.0074,-0.0086,-0.0074,-0.0114,-0.0078,-0.0055,-0.0101,-0.0102,-0.0104,-0.0145,-0.0151,-0.0075,-0.0075,-0.0074,0,0.0046,0.0067,0.0053,0.0069,0.0071,0.005,0.0068,0.0062,0.005,0.004,0.003,-0.0018,-0.0041,-0.0062,-0.0057,-0.0068,-0.0098,-0.0066,-0.0097,-0.0099,-0.0102,-0.0143,-0.015,-0.0072,-0.0073,-0.0073,-0.0073,0,0.0085,0.01,0.0111,0.0121,0.0123,0.0135,0.0126,0.0126,0.0111,0.0092,0.0066,0.0029,-0.0003,-0.0014,-0.0028,-0.0057,-0.0074,-0.0089,-0.0106,-0.0101,-0.0145,-0.0153,-0.0069,-0.007,-0.0071,-0.0071,0,0,0.0103,0.0133,0.0135,0.0146,0.015,0.0155,0.017,0.0166,0.016,0.0137,0.0119,0.0086,0.0048,0.003,-0.0003,-0.0039,-0.0082,-0.0064,-0.0068,-0.0103,-0.0181,-0.0165,-0.0172,-0.0103,-0.0104,-0.0105,-0.0204,0,0.0134,0.0176,0.0182,0.0214,0.0229,0.0218,0.0229,0.0219,0.0198,0.0174,0.0125,0.0097,0.007,0.0051,0.0009,-0.0059,-0.0101,-0.0054,-0.0183,-0.0187,-0.0172,-0.018,-0.0109,-0.021,-0.0212,-0.0214,-0.0215,0,0.0162,0.0188,0.0231,0.0252,0.0257,0.0274,0.0271,0.0279,0.0243,0.0222,0.0179,0.0134,0.0082,0.0056,-0.0059,-0.0026,-0.0099,-0.0154,-0.016,-0.0165,-0.0185,-0.0219,-0.023,-0.0228,-0.0227,-0.0226,-0.0225,0,0.0168,0.0214,0.025,0.0257,0.0283,0.0299,0.031,0.0291,0.029,0.025,0.0238,0.0157,0.0122,0.0025,-0.0077,-0.0073,-0.0211,-0.0224,-0.0282,-0.0282,-0.0287,-0.0284,-0.0316,-0.0316,-0.0316,-0.0316,-0.0315,0,0.0184,0.0209,0.0259,0.0274,0.0308,0.0318,0.0336,0.0332,0.0319,0.0324,0.0264,0.0247,0.0113,0.0024,-0.0077,-0.0198,-0.0215,-0.0281,-0.0307,-0.0265,-0.0259,-0.0293,-0.0289,-0.0319,-0.0319,-0.0318,-0.0317,0,0.017,0.021,0.0245,0.0291,0.0313,0.0329,0.0367,0.038,0.037,0.0378,0.0373,0.0299,0.0197,0.0056,-0.0111,-0.0188,-0.0311,-0.0355,-0.0298,-0.0318,-0.0354,-0.0347,-0.0429,-0.043,-0.043,-0.043,-0.043,0,0.0157,0.0181,0.0248,0.0282,0.0308,0.0347,0.0385,0.04,0.0424,0.0422,0.0435,0.034,0.0279,0.0064,-0.0094,-0.0302,-0.0328,-0.0397,-0.0377,-0.0349,-0.0367,-0.0359,-0.0351,-0.0431,-0.0431,-0.0431,-0.0431,0,0.0126,0.0158,0.0199,0.0295,0.0351,0.0395,0.0457,0.0472,0.0508,0.0492,0.0492,0.0389,0.0265,0.0087,-0.0084,-0.0229,-0.0352,-0.04,-0.04,-0.0382,-0.0352,-0.0367,-0.0359,-0.0431,-0.0431,-0.0431,-0.0431,0,0.0115,0.014,0.0237,0.0319,0.0388,0.0465,0.0468,0.0526,0.0551,0.0557,0.0552,0.0431,0.0343,0.0124,-0.0025,-0.0175,-0.0211,-0.0251,-0.026,-0.0261,-0.018,-0.0115,-0.0146,0,0,0,0,0,0.0122,0.02,0.0265,0.0388,0.0449,0.0506,0.055,0.0553,0.058,0.0595,0.0579,0.0476,0.027,0.0173,0.0027,-0.005,-0.0255,-0.0227,-0.031,-0.0436,-0.0435,-0.0367,0,0,0,0,0,0,0.0156,0.0234,0.0291,0.0441,0.0522,0.0617,0.0639,0.0638,0.0639,0.0629,0.0516,0.0463,0.0246,0.037,0.004,-0.0009,-0.0079,-0.0331,-0.0333,-0.0436,-0.0435,-0.0435,-0.0364,0,0,0,0,0]}]]